Terug naar catalogus

FENGYUN 1C DEB

ActiefSSO
NORAD 41830·DEBRIS·🇨🇳 China

Gelanceerd May 10, 1999 vanaf Taiyuan Satellite Launch Center

Loading…

Volgende Passages (komende 24 uur)

TLE

VersSource: Space-Track

Epoch: Sep 13, 2026, 17:36 UTC

1 41830U 99025EYH 26256.73386938  .00002178  00000-0  87737-3 0  9992
2 41830  98.7380 333.8062 0054240 136.5931 223.9541 14.28259097511977

Volg FENGYUN 1C DEB in realtime met AllMySat

Download on the App Store